[[{"header":{"parameterUnit":"m.s-1","parameterCategory":1,"la1":30.2991,"la2":30.254,"lo1":-89.0895,"lo2":-89.0444,"dy":0.0017,"dx":0.0017,"nx":28,"ny":28,"refTime":"2024-03-23T21:00:00:Z","depth":0,"parameterNumber":2,"parameterNumberName":"U-component_of_WINDS"},"data":[0,0,0,0,0,0,0,0,0,0,0,0,0,0,0,0,0,0,0,0,0,0,0,0,0,0,0,0,0,0,0,0,0,0,0,0,0,0,0,0,0,0,0,0,0,0,0,0,0,0,0,0,0,0,0,0,0,0,-6.1116,-6.1116,0,-6.1192,-6.1193,-6.1194,-6.1155,-6.1153,-6.1151,-6.1149,-6.1223,-6.1227,-6.1231,0,0,0,0,0,0,0,0,0,0,0,0,0,-6.0933,-6.0937,-6.1115,-6.1116,-6.1117,-6.1192,-6.1193,-6.1194,-6.1155,-6.1153,-6.115,-6.1148,-6.1222,-6.1227,-6.1231,0,0,0,0,0,0,0,0,0,0,0,0,0,-6.1011,-6.0938,-6.1115,-6.1107,-6.1107,-6.1192,-6.1193,-6.1194,-6.1156,-6.1152,-6.1149,-6.1147,-6.1221,-6.1226,-6.1232,-6.1328,0,0,-6.125,-6.1252,0,0,0,0,0,0,0,0,-6.1007,-6.1018,-6.1107,-6.1108,-6.1108,-6.1161,-6.1156,-6.1239,-6.1156,-6.1137,-6.1149,-6.1145,-6.1205,-6.1212,-6.1233,-6.1332,-6.1335,-6.125,-6.1254,-6.1256,-6.1258,0,0,0,0,0,0,0,-6.1001,-6.1014,-6.1146,-6.1109,-6.1109,-6.1099,-6.1106,-6.1172,-6.1187,-6.1138,-6.1136,-6.1146,-6.1204,-6.1227,-6.1234,-6.1336,-6.125,-6.1255,-6.1259,-6.1261,-6.1518,-6.1521,0,0,0,0,0,0,-6.0997,-6.101,-6.1143,-6.1148,-6.1049,-6.1104,-6.1113,-6.1147,-6.1186,-6.1189,-6.1148,-6.1143,-6.1219,-6.1227,-6.1236,-6.1351,-6.1256,-6.1262,-6.1265,-6.1515,-6.1519,-6.1523,0,0,0,0,0,0,-6.0993,-6.1009,-6.114,-6.1078,-6.1094,-6.1111,-6.1149,-6.115,-6.1172,-6.1193,-6.1195,-6.1169,-6.1217,-6.1228,-6.1306,-6.1353,-6.1264,-6.127,-6.1511,-6.1516,-6.1521,-6.1581,0,0,0,0,0,0,-6.0988,-6.1008,-6.1045,-6.108,-6.1098,-6.1209,-6.1152,-6.1154,-6.1183,-6.1178,-6.1213,-6.1216,-6.1215,-6.1298,-6.1312,-6.1359,-6.1274,-6.1507,-6.1513,-6.1519,-6.1575,-6.1588,-6.1599,0,0,0,0,0,-6.0982,-6.1058,-6.1047,-6.1063,-6.1145,-6.1212,-6.1222,-6.122,-6.1187,-6.1224,-6.1238,-6.1215,-6.1347,-6.1306,-6.1321,-6.1372,-6.1504,-6.1511,-6.1519,-6.157,-6.1585,-6.1598,0,0,0,0,0,0,-6.1026,-6.1062,-6.105,-6.1141,-6.1174,-6.1205,-6.1251,-6.1237,-6.1279,-6.1272,-6.1268,-6.1276,-6.1356,-6.1372,-6.1326,-6.1467,-6.142,-6.1431,-6.1453,-6.1468,-6.148,-6.1473,-6.1279,0,0,0,0,0,-6.1047,-6.11,-6.1128,-6.1205,-6.1222,-6.1235,-6.1264,-6.126,-6.1293,-6.1307,-6.1326,-6.1358,-6.1407,-6.1439,-6.1485,-6.1579,-6.1585,-6.1621,-6.1633,-6.1642,-6.1651,-6.1701,-6.1717,-6.1547,-6.1547,-6.1547,0,0,-6.109,-6.1116,-6.1149,-6.1215,-6.124,-6.1293,-6.1246,-6.1305,-6.1344,-6.1315,-6.1389,-6.1405,-6.1441,-6.1528,-6.1566,-6.1543,-6.17,-6.1652,-6.1659,-6.1663,-6.1711,-6.1727,-6.1741,-6.1552,-6.1552,-6.1551,0,0,-6.1194,-6.122,-6.1287,-6.1314,-6.1353,-6.1361,-6.1378,-6.1412,-6.1422,-6.1497,-6.1477,-6.1524,-6.1608,-6.1634,-6.1659,-6.1777,-6.1757,-6.1792,-6.1852,-6.1901,-6.1915,-6.1926,-6.1967,-6.1982,-6.1801,-6.1801,-6.1801,0,-6.1241,-6.1322,-6.1322,-6.1383,-6.1412,-6.1391,-6.1458,-6.1484,-6.1536,-6.1556,-6.1531,-6.1637,-6.1659,-6.1751,-6.178,-6.1802,-6.1819,-6.1786,-6.1913,-6.1925,-6.1936,-6.1974,-6.199,-6.1805,-6.1805,-6.1804,-6.1804,0,-6.1378,-6.1435,-6.1484,-6.1536,-6.1571,-6.1635,-6.1644,-6.168,-6.1674,-6.1685,-6.1762,-6.1789,-6.184,-6.1863,-6.1857,-6.1954,-6.1939,-6.1913,-6.1865,-6.1956,-6.1992,-6.2007,-6.1811,-6.1809,-6.1808,-6.1807,0,0,-6.1509,-6.1563,-6.1581,-6.1604,-6.1648,-6.1691,-6.1755,-6.1806,-6.1836,-6.1874,-6.1926,-6.1999,-6.1977,-6.2005,-6.2002,-6.2046,-6.2137,-6.2015,-6.2016,-6.2035,-6.2244,-6.2261,-6.2278,-6.2125,-6.2128,-6.2131,-6.224,0,-6.1615,-6.1726,-6.1729,-6.183,-6.1882,-6.1865,-6.1919,-6.1952,-6.1965,-6.201,-6.2024,-6.2075,-6.2042,-6.2059,-6.2102,-6.2116,-6.2178,-6.2109,-6.2172,-6.2174,-6.216,-6.2297,-6.2315,-6.2417,-6.2255,-6.2257,-6.2259,0,-6.1752,-6.1796,-6.1902,-6.194,-6.1962,-6.2011,-6.2059,-6.2104,-6.214,-6.2146,-6.2179,-6.2171,-6.2235,-6.2188,-6.2275,-6.2228,-6.2255,-6.2267,-6.2271,-6.2274,-6.222,-6.2302,-6.245,-6.2464,-6.2282,-6.228,-6.2278,0,-6.1834,-6.192,-6.1995,-6.2017,-6.2062,-6.2097,-6.2118,-6.2152,-6.2183,-6.2226,-6.2246,-6.2295,-6.2321,-6.2359,-6.2364,-6.233,-6.2452,-6.2405,-6.2457,-6.2457,-6.2481,-6.2479,-6.2633,-6.2503,-6.2503,-6.2502,-6.2502,0,-6.1951,-6.2016,-6.2033,-6.2079,-6.2152,-6.2156,-6.2228,-6.2246,-6.2277,-6.2325,-6.2314,-6.2359,-6.2365,-6.2412,-6.2417,-6.2488,-6.25,-6.2506,-6.2506,-6.2506,-6.2505,-6.2521,-6.2513,-6.2507,-6.2506,-6.2505,-6.2504,0,-6.2053,-6.2068,-6.2148,-6.2186,-6.2197,-6.2249,-6.2281,-6.2325,-6.2338,-6.2399,-6.2414,-6.2434,-6.2489,-6.2499,-6.2564,-6.2567,-6.2651,-6.2645,-6.2639,-6.2637,-6.2688,-6.2683,-6.2855,-6.2878,-6.2736,-6.2737,-6.2738,0,-6.2125,-6.2175,-6.222,-6.2252,-6.2275,-6.2327,-6.236,-6.2366,-6.24,-6.2448,-6.2485,-6.254,-6.2583,-6.2672,-6.2691,-6.2741,-6.2735,-6.2792,-6.2742,-6.274,-6.2733,-6.2729,-6.2733,-6.28,-6.2802,-6.2803,-6.2804,0,-6.225,-6.2256,-6.2304,-6.2355,-6.2395,-6.2435,-6.2473,-6.25,-6.2512,-6.2551,-6.2608,-6.2642,-6.2709,-6.2763,-6.2813,-6.2833,-6.282,-6.2821,-6.2835,-6.2833,-6.2827,-6.2829,-6.2663,-6.2816,-6.2815,-6.2814,-6.2813,-6.2813,-6.2338,-6.2382,-6.2421,-6.2475,-6.2505,-6.2541,-6.2584,-6.2604,-6.2652,-6.2708,-6.2709,-6.2771,-6.2808,-6.2874,-6.2898,-6.2946,-6.2928,-6.2949,-6.2954,-6.2958,-6.2962,-6.2822,-6.2956,-6.2956,-6.2955,-6.2955,-6.2955,0,-6.2461,-6.2486,-6.2536,-6.2591,-6.2633,-6.2621,-6.2663,-6.2699,-6.2754,-6.279,-6.2834,-6.29,-6.2953,-6.2978,-6.303,-6.3064,-6.3059,-6.3077,-6.3073,-6.3077,-6.2977,-6.2958,-6.308,-6.3079,-6.3079,-6.3079,-6.3079,-6.3079,-6.253,-6.2604,-6.2614,-6.2702,-6.2726,-6.2788,-6.2813,-6.2847,-6.2876,-6.295,-6.2994,-6.3011,-6.3043,-6.3098,-6.3145,-6.3151,-6.317,-6.319,-6.3193,-6.3097,-6.3085,-6.3072,-6.3055,-6.3194,-6.3195,-6.3289,-6.329,-6.3291]},{"header":{"parameterUnit":"m.s-1","parameterCategory":1,"la1":30.2991,"la2":30.254,"lo1":-89.0895,"lo2":-89.0444,"dy":0.0017,"dx":0.0017,"nx":28,"ny":28,"refTime":"2024-03-23T21:00:00:Z","depth":0,"parameterNumber":3,"parameterNumberName":"V-component_of_WINDS"},"data":[0,0,0,0,0,0,0,0,0,0,0,0,0,0,0,0,0,0,0,0,0,0,0,0,0,0,0,0,0,0,0,0,0,0,0,0,0,0,0,0,0,0,0,0,0,0,0,0,0,0,0,0,0,0,0,0,0,0,4.4021,4.4021,0,4.4026,4.4026,4.4026,4.3981,4.3979,4.3978,4.3977,4.398,4.3981,4.3982,0,0,0,0,0,0,0,0,0,0,0,0,0,4.3973,4.3974,4.4021,4.4021,4.4021,4.4026,4.4026,4.4026,4.3981,4.3979,4.3978,4.3976,4.3979,4.3981,4.3982,0,0,0,0,0,0,0,0,0,0,0,0,0,4.3988,4.3975,4.4021,4.3999,4.3998,4.4026,4.4026,4.4026,4.3981,4.3979,4.3977,4.3976,4.3979,4.3981,4.3982,4.4031,0,0,4.3988,4.3989,0,0,0,0,0,0,0,0,4.3987,4.3989,4.4003,4.4001,4.3999,4.4001,4.401,4.4028,4.3982,4.3987,4.3977,4.3975,4.3988,4.3989,4.3994,4.4032,4.4032,4.3988,4.3989,4.399,4.3991,0,0,0,0,0,0,0,4.3986,4.3989,4.4023,4.4003,4.4001,4.3989,4.3989,4.4013,4.3998,4.3987,4.3983,4.3985,4.3987,4.3992,4.3994,4.4032,4.3988,4.399,4.3991,4.3992,4.4113,4.4115,0,0,0,0,0,0,4.3988,4.3988,4.4023,4.4023,4.3988,4.3992,4.3992,4.4002,4.3998,4.3995,4.3986,4.3983,4.399,4.3992,4.3994,4.4052,4.399,4.3992,4.3993,4.4111,4.4113,4.4115,0,0,0,0,0,0,4.3987,4.3991,4.4023,4.4005,4.4008,4.3995,4.4007,4.4003,4.4009,4.3997,4.3994,4.3995,4.3989,4.3991,4.4023,4.4052,4.3993,4.3994,4.4108,4.4111,4.4114,4.417,0,0,0,0,0,0,4.3986,4.3991,4.4009,4.4006,4.4009,4.4052,4.4008,4.4005,4.4012,4.4007,4.4005,4.4002,4.3987,4.4021,4.4025,4.4053,4.3996,4.4105,4.411,4.4113,4.4165,4.4174,4.4182,0,0,0,0,0,4.3984,4.4024,4.4011,4.4015,4.4032,4.4054,4.4056,4.4038,4.4015,4.4033,4.4027,4.4002,4.4048,4.4024,4.4029,4.4058,4.4104,4.4108,4.4113,4.4161,4.4172,4.4182,0,0,0,0,0,0,4.4029,4.4023,4.4008,4.4047,4.4052,4.4046,4.4068,4.405,4.4061,4.4056,4.4033,4.4033,4.4069,4.4067,4.404,4.4107,4.4072,4.4078,4.4107,4.4117,4.4126,4.4125,4.3997,0,0,0,0,0,4.4044,4.4063,4.4056,4.4091,4.4095,4.4082,4.4091,4.4077,4.408,4.4082,4.4077,4.4081,4.4096,4.4107,4.412,4.4165,4.4165,4.4188,4.4196,4.4203,4.4208,4.4234,4.4245,4.4131,4.4131,4.4131,0,0,4.4074,4.4073,4.4086,4.4101,4.4102,4.4123,4.4083,4.4106,4.4121,4.4085,4.4115,4.4113,4.4115,4.4155,4.4172,4.4154,4.424,4.4209,4.4215,4.4216,4.424,4.4251,4.4261,4.4134,4.4134,4.4133,0,0,4.414,4.414,4.4171,4.4175,4.4179,4.4171,4.4178,4.4176,4.4174,4.4204,4.4179,4.4196,4.4223,4.4227,4.4232,4.4304,4.4282,4.4309,4.4353,4.4378,4.4387,4.4395,4.4422,4.4432,4.4314,4.4314,4.4314,0,4.4176,4.4207,4.4189,4.4215,4.4223,4.4193,4.4225,4.4229,4.4237,4.4243,4.4223,4.4258,4.4258,4.4299,4.4317,4.4322,4.433,4.4308,4.4387,4.4395,4.4402,4.4427,4.4437,4.4317,4.4317,4.4317,4.4316,0,4.4253,4.4274,4.4299,4.4309,4.432,4.4348,4.4336,4.4349,4.4336,4.433,4.4363,4.4362,4.4376,4.4385,4.4371,4.4425,4.4414,4.4391,4.4355,4.4417,4.444,4.4449,4.4322,4.4321,4.432,4.4319,0,0,4.4344,4.4348,4.4357,4.4363,4.4367,4.4383,4.4411,4.4426,4.4439,4.4446,4.4469,4.4494,4.4475,4.4481,4.4468,4.449,4.4549,4.4465,4.4464,4.4481,4.4611,4.4628,4.4639,4.4536,4.4537,4.4539,4.4611,0,4.4409,4.4458,4.4445,4.4493,4.4514,4.4488,4.4513,4.4518,4.4514,4.4531,4.4527,4.4545,4.4517,4.4521,4.4542,4.4537,4.4575,4.4532,4.4558,4.4559,4.4558,4.4651,4.4669,4.4737,4.462,4.4621,4.4622,0,4.449,4.4504,4.4555,4.4559,4.4567,4.4589,4.4604,4.4621,4.4627,4.4623,4.4632,4.4615,4.4644,4.4609,4.4648,4.462,4.463,4.4629,4.4632,4.4633,4.4594,4.4656,4.4758,4.4769,4.4636,4.4635,4.4634,0,4.4554,4.4584,4.462,4.4625,4.463,4.4647,4.4649,4.4654,4.4665,4.4678,4.4685,4.47,4.4709,4.4721,4.471,4.4685,4.4752,4.4715,4.475,4.475,4.4764,4.4764,4.487,4.477,4.477,4.477,4.477,0,4.4628,4.4661,4.4649,4.467,4.4707,4.4692,4.4729,4.4728,4.4734,4.4755,4.4733,4.4754,4.4737,4.4757,4.4748,4.4783,4.4787,4.4784,4.4782,4.4787,4.4787,4.4793,4.4788,4.4773,4.4772,4.4772,4.4771,0,4.4704,4.4698,4.4735,4.4738,4.4739,4.4766,4.4769,4.4789,4.4785,4.4813,4.4818,4.4812,4.4834,4.4824,4.4846,4.484,4.4886,4.4877,4.4884,4.4882,4.4918,4.4915,4.5031,4.5047,4.4937,4.4938,4.4939,0,4.4752,4.4777,4.4784,4.4798,4.4803,4.4824,4.4837,4.4824,4.4837,4.4849,4.4868,4.4889,4.4905,4.4942,4.4939,4.4956,4.4948,4.4988,4.495,4.4955,4.495,4.4949,4.4952,4.4995,4.4996,4.4997,4.4998,0,4.4838,4.4835,4.4853,4.4872,4.4888,4.4901,4.4913,4.4925,4.4913,4.493,4.4953,4.4966,4.4991,4.5012,4.5028,4.5031,4.5013,4.501,4.5019,4.5025,4.5029,4.5028,4.4906,4.5007,4.5006,4.5006,4.5005,4.5005,4.4902,4.4925,4.4934,4.4956,4.4965,4.4977,4.4997,4.4997,4.5017,4.5037,4.5028,4.5056,4.5064,4.5085,4.509,4.5112,4.5096,4.5109,4.5112,4.5116,4.5121,4.5025,4.5115,4.5114,4.5114,4.5114,4.5114,0,4.4989,4.4994,4.5015,4.5034,4.5052,4.5035,4.5048,4.5064,4.5089,4.5099,4.5117,4.5145,4.5166,4.5166,4.5186,4.5204,4.5196,4.5209,4.5208,4.5209,4.5133,4.5124,4.5215,4.5215,4.5215,4.5215,4.5215,4.5215,4.5036,4.5073,4.5071,4.5113,4.5118,4.5146,4.5156,4.5167,4.5176,4.5209,4.5227,4.5228,4.5234,4.5255,4.5274,4.5274,4.5282,4.5299,4.5296,4.5224,4.5214,4.5205,4.5196,4.5301,4.5301,4.537,4.537,4.5371]}]]